TimeCST,TemperatureF,Dew PointF,Humidity,Sea Level PressureIn,VisibilityMPH,Wind Direction,Wind SpeedMPH,Gust SpeedMPH,PrecipitationIn,Events,Conditions,WindDirDegrees,DateUTC
12:53 AM,30.0,18.0,61,30.45,10.0,Calm,Calm,-,N/A,,Clear,0,2014-01-03 06:53:00
1:53 AM,27.0,17.1,66,30.45,10.0,ESE,3.5,-,N/A,,Clear,110,2014-01-03 07:53:00
2:53 AM,26.1,18.0,71,30.45,10.0,SE,3.5,-,N/A,,Clear,130,2014-01-03 08:53:00
3:53 AM,28.0,18.0,66,30.44,10.0,SE,3.5,-,N/A,,Clear,140,2014-01-03 09:53:00
4:53 AM,26.1,17.1,69,30.42,10.0,SE,4.6,-,N/A,,Clear,140,2014-01-03 10:53:00
5:53 AM,24.1,16.0,71,30.43,10.0,SSE,3.5,-,N/A,,Clear,150,2014-01-03 11:53:00
6:53 AM,23.0,16.0,74,30.42,10.0,SE,5.8,-,N/A,,Clear,140,2014-01-03 12:53:00
7:53 AM,27.0,18.0,69,30.43,10.0,SE,5.8,-,N/A,,Clear,140,2014-01-03 13:53:00
8:53 AM,33.1,21.0,61,30.42,10.0,SE,12.7,-,N/A,,Clear,140,2014-01-03 14:53:00
9:53 AM,37.0,21.0,52,30.42,10.0,SE,18.4,24.2,N/A,,Clear,140,2014-01-03 15:53:00
10:53 AM,39.9,21.0,47,30.40,10.0,SSE,13.8,19.6,N/A,,Clear,160,2014-01-03 16:53:00
11:53 AM,43.0,23.0,45,30.35,10.0,SSE,16.1,23.0,N/A,,Clear,160,2014-01-03 17:53:00
12:53 PM,46.9,23.0,39,30.29,10.0,South,10.4,23.0,N/A,,Clear,170,2014-01-03 18:53:00
1:53 PM,50.0,21.9,33,30.25,10.0,South,12.7,21.9,N/A,,Clear,170,2014-01-03 19:53:00
2:53 PM,51.1,21.0,31,30.21,10.0,South,13.8,23.0,N/A,,Clear,170,2014-01-03 20:53:00
3:53 PM,52.0,19.9,28,30.17,10.0,SSE,11.5,23.0,N/A,,Clear,160,2014-01-03 21:53:00
4:53 PM,51.1,19.0,28,30.14,10.0,SSE,10.4,20.7,N/A,,Clear,160,2014-01-03 22:53:00
5:53 PM,48.0,19.9,33,30.14,10.0,South,10.4,-,N/A,,Clear,170,2014-01-03 23:53:00
6:53 PM,46.9,19.9,34,30.12,10.0,South,11.5,20.7,N/A,,Clear,170,2014-01-04 00:53:00
7:53 PM,45.0,21.9,40,30.11,10.0,SSE,10.4,17.3,N/A,,Clear,160,2014-01-04 01:53:00
8:53 PM,45.0,21.9,40,30.09,10.0,South,12.7,23.0,N/A,,Clear,170,2014-01-04 02:53:00
9:53 PM,44.1,23.0,43,30.07,10.0,South,11.5,18.4,N/A,,Clear,170,2014-01-04 03:53:00
10:53 PM,43.0,23.0,45,30.06,10.0,South,10.4,18.4,N/A,,Clear,170,2014-01-04 04:53:00
11:53 PM,43.0,23.0,45,30.04,10.0,South,11.5,18.4,N/A,,Clear,170,2014-01-04 05:53:00